レモン彗星

C/2020 W5 ( Lemmon )

English version
Home page
Updated on February 20, 2021

---------------------------------------------------------------------

・ プロフィール

発見日 2020年11月20日
発見光度 21.6等
発見者 Mt. Lemmon Survey

・ 軌道要素

Epoch 2020 Dec. 17.0 TT = JDT 2459200.5
T 2020 Nov. 30.11878 TT                                 Rudenko
q   3.3642411            (2000.0)            P               Q
z  -0.0003244      Peri.   24.48378     +0.21777189     -0.12539153
 +/-0.0000669      Node    75.51324     +0.64597453     -0.72489803
e   1.0010912      Incl.   88.58767     +0.73163674     +0.67734763
From 55 observations 2020 Nov. 20-2021 Jan. 8, mean residual 0".5.

・ 光度変化

        m1 = 14.0 + 5 logΔ + 10.0 log r

---------------------------------------------------------------------

軌道要素はM.P.E.C. 2021-B143に掲載されたものです。
光度グラフはComet for Windowsで作成したものです。

---------------------------------------------------------------------

Copyright(C) Seiichi Yoshida (comet@aerith.net). All rights reserved.